North Myrtle Beach, SC

7:29 AM EDT on August 18, 2017 (GMT -0400)
Grand Strand

Weather History for KCRE - March, 2012

Change the Weather History Date:

Sunday, March 4, 2012

  Actual Average Record
Temperature  
Mean Temperature 49 °F 51 °F  
Max Temperature 59 °F 61 °F 80 °F (1955)
Min Temperature 39 °F 42 °F 21 °F (2009)
Degree Days  
Heating Degree Days 16 14  
Month to date heating degree days 19 56  
Since 1 July heating degree days 1600 2000  
Cooling Degree Days 0 0  
Month to date cooling degree days 3 0  
Year to date cooling degree days 3 0  
Moisture  
Dew Point 44 °F    
Average Humidity 66    
Maximum Humidity 100    
Minimum Humidity 32    
Precipitation  
Precipitation 1.23 in 0.12 in 1.23 in (2012)
Month to date precipitation 2.63 0.47  
Year to date precipitation 5.87 7.58  
Sea Level Pressure  
Sea Level Pressure 29.76 in    
Wind  
Wind Speed 7 mph (NNW)    
Max Wind Speed 20 mph    
Max Gust Speed 30 mph    
Visibility 6 miles    
Events Rain    
T = Trace of Precipitation, MM = Missing Value Source: NWS Daily Summary

Daily Weather History Graph

Daily Weather History Graph

Search for Another Location

Airport or City:

Trip Planner

Search our weather history database for the weather conditions in past years. The results will help you decide how hot, cold, wet, or windy it might be!

Date:

Astronomy

Mar. 04, 2012 Rise Set
Actual Time 6:39 AM EST 6:14 PM EST
Civil Twilight 6:14 AM EST 6:39 PM EST
Nautical Twilight 5:45 AM EST 7:08 PM EST
Astronomical Twilight 5:16 AM EST 7:37 PM EST
Moon 2:33 PM EST (3/4) 3:48 AM EST (3/4)
Length of Visible Light 12h 25m
Length of Day
11h 35m
Waxing Gibbous, 83% of the Moon is Illuminated
Mar 4
Waxing Gibbous
Mar 8
Full
Mar 14
Last Quarter
Mar 22
New
Mar 30
First Quarter

Hourly Weather History & Observations

Time (EST) Temp. Windchill Dew Point Humidity Pressure Visibility Wind Dir Wind Speed Gust Speed Precip Events Conditions
12:06 AM 59.0 °F - 57.2 °F 94% 29.70 in 4.0 mi West 3.5 mph - 0.03 in Rain Rain
12:17 AM 59.0 °F - 57.2 °F 94% 29.69 in 4.0 mi Calm Calm - 0.06 in Rain Rain
12:41 AM 59.0 °F - 57.2 °F 94% 29.69 in 2.5 mi WSW 3.5 mph - 0.14 in Rain Rain
12:48 AM 59.0 °F - 57.2 °F 94% 29.68 in 3.0 mi Calm Calm - 0.17 in Rain Rain
12:53 AM 59.0 °F - 57.9 °F 96% 29.68 in 2.5 mi Calm Calm - 0.19 in Rain Heavy Rain
1:02 AM 57.2 °F - 57.2 °F 100% 29.68 in 4.0 mi West 3.5 mph - 0.03 in Rain Rain
1:19 AM 57.2 °F - 57.2 °F 100% 29.67 in 2.5 mi Calm Calm - 0.10 in Rain Heavy Rain
1:28 AM 57.2 °F - 57.2 °F 100% 29.67 in 4.0 mi NNW 4.6 mph - 0.12 in Rain Rain
1:41 AM 55.4 °F - 53.6 °F 94% 29.67 in 5.0 mi North 9.2 mph 19.6 mph 0.16 in Rain Rain
1:53 AM 54.0 °F - 53.1 °F 97% 29.66 in 6.0 mi North 11.5 mph 17.3 mph 0.18 in Rain Light Rain
2:23 AM 51.8 °F - 48.2 °F 88% 29.68 in 7.0 mi NNE 11.5 mph 20.7 mph 0.07 in Rain Light Rain
2:33 AM 50.0 °F - 46.4 °F 87% 29.68 in 5.0 mi North 12.7 mph 18.4 mph 0.09 in Rain Rain
2:53 AM 50.0 °F - 46.9 °F 89% 29.68 in 3.0 mi North 10.4 mph 19.6 mph 0.17 in Rain Heavy Rain
3:01 AM 50.0 °F - 46.4 °F 87% 29.67 in 5.0 mi North 8.1 mph 18.4 mph 0.01 in Rain Rain
3:40 AM 48.2 °F - 46.4 °F 93% 29.65 in 7.0 mi NNE 10.4 mph - 0.08 in Rain Light Rain
3:49 AM 48.2 °F - 46.4 °F 93% 29.62 in 7.0 mi NNE 15.0 mph 19.6 mph 0.09 in Rain Rain
3:53 AM 48.9 °F - 46.0 °F 90% 29.63 in 7.0 mi NNE 11.5 mph - 0.10 in Rain Rain
4:53 AM 48.9 °F - 46.0 °F 90% 29.66 in 4.0 mi NNE 11.5 mph - 0.15 in Rain Heavy Rain
5:00 AM 48.2 °F - 46.4 °F 93% 29.67 in 2.5 mi North 9.2 mph 18.4 mph 0.05 in Rain Heavy Rain
5:10 AM 48.2 °F - 46.4 °F 93% 29.66 in 2.5 mi North 9.2 mph - 0.11 in Rain Heavy Rain
5:16 AM 48.2 °F - 46.4 °F 93% 29.66 in 3.0 mi NNE 6.9 mph - 0.13 in Rain Rain
5:34 AM 48.2 °F - 46.4 °F 93% 29.67 in 5.0 mi North 5.8 mph - 0.16 in Rain Rain
5:44 AM 48.2 °F - 46.4 °F 93% 29.67 in 6.0 mi North 8.1 mph - 0.18 in Rain Light Rain
5:53 AM 48.9 °F - 46.0 °F 90% 29.69 in 7.0 mi North 5.8 mph - 0.20 in Rain Rain
6:53 AM 48.9 °F - 46.0 °F 90% 29.69 in 4.0 mi Variable 4.6 mph - 0.08 in Rain Rain
7:22 AM 48.2 °F - 46.4 °F 93% 29.72 in 3.0 mi NW 4.6 mph - 0.06 in Rain Light Rain
7:29 AM 48.2 °F - 46.4 °F 93% 29.72 in 3.0 mi North 6.9 mph - 0.06 in Rain Light Rain
7:40 AM 48.2 °F - 46.4 °F 93% 29.72 in 3.0 mi NNW 8.1 mph - 0.08 in Rain Rain
7:53 AM 48.0 °F - 45.0 °F 89% 29.73 in 3.0 mi North 8.1 mph - 0.09 in Rain Light Rain
8:04 AM 46.4 °F 42.4 °F 44.6 °F 93% 29.73 in 3.0 mi NNW 8.1 mph - 0.00 in Rain Light Rain
8:53 AM 46.9 °F - 45.0 °F 93% 29.79 in 4.0 mi Variable 4.6 mph - 0.08 in Rain Light Rain
9:14 AM 46.4 °F 44.3 °F 44.6 °F 93% 29.79 in 10.0 mi North 4.6 mph - 0.01 in Rain Light Rain
9:53 AM 48.0 °F - 44.1 °F 86% 29.76 in 10.0 mi North 3.5 mph - 0.01 in   Overcast
10:36 AM 48.2 °F - 46.4 °F 93% 29.77 in 10.0 mi NW 5.8 mph - N/A   Overcast
10:49 AM 48.2 °F - 44.6 °F 87% 29.78 in 10.0 mi WNW 6.9 mph - N/A   Overcast
10:53 AM 48.9 °F - 46.0 °F 90% 29.78 in 10.0 mi Variable 5.8 mph - N/A   Overcast
11:39 AM 51.8 °F - 44.6 °F 76% 29.79 in 10.0 mi NNW 8.1 mph 17.3 mph N/A   Mostly Cloudy
11:53 AM 52.0 °F - 43.0 °F 71% 29.81 in 10.0 mi NW 6.9 mph 17.3 mph N/A   Mostly Cloudy
12:18 PM 53.6 °F - 42.8 °F 67% 29.79 in 10.0 mi NW 10.4 mph 18.4 mph N/A   Mostly Cloudy
12:53 PM 55.9 °F - 42.1 °F 60% 29.78 in 10.0 mi WNW 8.1 mph - N/A   Scattered Clouds
1:53 PM 55.9 °F - 36.0 °F 47% 29.78 in 10.0 mi NW 6.9 mph - N/A   Mostly Cloudy
2:53 PM 55.0 °F - 37.9 °F 53% 29.78 in 10.0 mi WNW 6.9 mph - 0.00 in Rain Light Rain
3:53 PM 55.9 °F - 30.9 °F 39% 29.81 in 10.0 mi West 8.1 mph 19.6 mph 0.00 in   Mostly Cloudy
4:53 PM 55.9 °F - 28.9 °F 36% 29.84 in 10.0 mi NW 12.7 mph 26.5 mph 0.00 in   Scattered Clouds
5:53 PM 53.1 °F - 28.9 °F 40% 29.89 in 10.0 mi WNW 4.6 mph - N/A   Scattered Clouds
6:53 PM 52.0 °F - 23.0 °F 32% 29.94 in 10.0 mi West 8.1 mph - N/A   Partly Cloudy
7:53 PM 50.0 °F - 26.1 °F 39% 30.00 in 10.0 mi NNW 8.1 mph - N/A   Scattered Clouds
8:53 PM 48.0 °F - 28.0 °F 46% 30.04 in 10.0 mi West 4.6 mph - N/A   Clear
9:53 PM 46.0 °F 44.8 °F 27.0 °F 47% 30.07 in 10.0 mi West 3.5 mph - N/A   Clear
10:53 PM 41.0 °F - 30.0 °F 65% 30.09 in 10.0 mi Calm Calm - N/A   Clear
11:53 PM 39.9 °F 37.8 °F 30.0 °F 68% 30.11 in 10.0 mi WSW 3.5 mph - N/A   Clear